This is the latest recevied weather packets stored in our database for station/object M0JUI-1. If no packets are shown the sender has not sent any weather packets the latest 10 day(s).
| Time | Temp. | Humidity | Pressure | Rain* | Wind** | Luminosity | Snow |
|---|---|---|---|---|---|---|---|
| 1787830592 | 16.67° C | 22% | 1009.7 hPa | 1.78 mm | - | 32 W/m² | - |
| 1787830295 | 16.67° C | 23% | 1009.7 hPa | 2.03 mm | - | 48 W/m² | - |
| 1787829993 | 16.67° C | 23% | 1009.6 hPa | 2.03 mm | - | 49 W/m² | - |
| 1787829692 | 16.67° C | 23% | 1009.8 hPa | 2.29 mm | - | 55 W/m² | - |
| 1787829392 | 16.67° C | 23% | 1009.7 hPa | 2.29 mm | - | 55 W/m² | - |
| 1787829081 | 16.67° C | 23% | 1009.7 hPa | 2.29 mm | - | 58 W/m² | - |
| 1787828780 | 16.67° C | 23% | 1009.6 hPa | 2.79 mm | - | 59 W/m² | - |
| 1787828485 | 16.67° C | 23% | 1009.7 hPa | 2.79 mm | - | 63 W/m² | - |
| 1787828169 | 16.67° C | 23% | 1009.7 hPa | 3.05 mm | - | 61 W/m² | - |
| 1787827869 | 16.67° C | 23% | 1009.4 hPa | 3.3 mm | - | 65 W/m² | - |
| 1787827568 | 16.67° C | 23% | 1009.7 hPa | 3.56 mm | - | 63 W/m² | - |
| 1787827256 | 16.67° C | 23% | 1009.4 hPa | 3.81 mm | - | 63 W/m² | - |
| 1787826956 | 16.67° C | 23% | 1009.6 hPa | 3.56 mm | - | 62 W/m² | - |
| 1787826656 | 16.67° C | 23% | 1009.8 hPa | 3.81 mm | - | 61 W/m² | - |
| 1787826345 | 16.67° C | 23% | 1009.7 hPa | 4.06 mm | - | 56 W/m² | - |
| 1787826045 | 16.67° C | 23% | 1010 hPa | 4.06 mm | - | 51 W/m² | - |
| 1787825745 | 16.67° C | 23% | 1009.9 hPa | 4.57 mm | - | 51 W/m² | - |
| 1787825444 | 16.67° C | 23% | 1010.1 hPa | 5.08 mm | - | 48 W/m² | - |
| 1787825145 | 16.67° C | 23% | 1010.1 hPa | 5.08 mm | - | 42 W/m² | - |
| 1787824851 | 16.67° C | 23% | 1010.1 hPa | 5.59 mm | - | 40 W/m² | - |
| 1787824545 | 16.67° C | 23% | 1010.1 hPa | 5.84 mm | - | 39 W/m² | - |
| 1787824244 | 16.67° C | 23% | 1010.3 hPa | 6.35 mm | - | 45 W/m² | - |
| 1787823945 | 16.67° C | 23% | 1010.3 hPa | 6.86 mm | - | 46 W/m² | - |
| 1787823644 | 16.67° C | 23% | 1010.2 hPa | 7.11 mm | - | 42 W/m² | - |
| 1787823344 | 16.67° C | 23% | 1010.3 hPa | 7.87 mm | - | 39 W/m² | - |
* Rain latest hour (hover to see other rain measurements)
** Current wind speed in m/s (hover to see current wind gust speed)